Data supplied by UK-AIR on 8/9/2010
All Data GMT hour ending  NB:  Upto 10/02/2009 PM10 were measured with a Standard TEOM, from 01/01/2008 PM10 were measured with a VCM TEOM
Status: R =Ratified P=Provisional,P*=As supplied
,,York Bootham,,,,,,,,,,,,,,,,,,,,,,,
Date,time,"PM10 particulate matter (Hourly measured)",status,unit,"Non-volatile PM2.5 (Hourly measured)",status,unit,"PM2.5 particulate matter (Hourly measured)",status,unit,"Volatile PM2.5 (Hourly measured)",status,unit
 
01-01-2008,01:00,28,R,ugm-3 (VCM),,,,,,,,,
01-01-2008,02:00,26,R,ugm-3 (VCM),,,,,,,,,
01-01-2008,03:00,26,R,ugm-3 (VCM),,,,,,,,,
01-01-2008,04:00,27,R,ugm-3 (VCM),,,,,,,,,
01-01-2008,05:00,24,R,ugm-3 (VCM),,,,,,,,,
01-01-2008,06:00,22,R,ugm-3 (VCM),,,,,,,,,
01-01-2008,07:00,26,R,ugm-3 (VCM),,,,,,,,,
01-01-2008,08:00,27,R,ugm-3 (VCM),,,,,,,,,
01-01-2008,09:00,22,R,ugm-3 (VCM),,,,,,,,,
01-01-2008,10:00,22,R,ugm-3 (VCM),,,,,,,,,
01-01-2008,11:00,19,R,ugm-3 (VCM),,,,,,,,,
01-01-2008,12:00,20,R,ugm-3 (VCM),,,,,,,,,
01-01-2008,13:00,23,R,ugm-3 (VCM),,,,,,,,,
01-01-2008,14:00,25,R,ugm-3 (VCM),,,,,,,,,
01-01-2008,15:00,23,R,ugm-3 (VCM),,,,,,,,,
01-01-2008,16:00,26,R,ugm-3 (VCM),,,,,,,,,
01-01-2008,17:00,29,R,ugm-3 (VCM),,,,,,,,,
01-01-2008,18:00,29,R,ugm-3 (VCM),,,,,,,,,
01-01-2008,19:00,28,R,ugm-3 (VCM),,,,,,,,,
01-01-2008,20:00,25,R,ugm-3 (VCM),,,,,,,,,
01-01-2008,21:00,27,R,ugm-3 (VCM),,,,,,,,,
01-01-2008,22:00,21,R,ugm-3 (VCM),,,,,,,,,
01-01-2008,23:00,20,R,ugm-3 (VCM),,,,,,,,,
01-01-2008,24:00,19,R,ugm-3 (VCM),,,,,,,,,
02-01-2008,01:00,19,R,ugm-3 (VCM),,,,,,,,,
02-01-2008,02:00,21,R,ugm-3 (VCM),,,,,,,,,
02-01-2008,03:00,25,R,ugm-3 (VCM),,,,,,,,,
02-01-2008,04:00,27,R,ugm-3 (VCM),,,,,,,,,
02-01-2008,05:00,32,R,ugm-3 (VCM),,,,,,,,,
02-01-2008,06:00,32,R,ugm-3 (VCM),,,,,,,,,
02-01-2008,07:00,34,R,ugm-3 (VCM),,,,,,,,,
02-01-2008,08:00,33,R,ugm-3 (VCM),,,,,,,,,
02-01-2008,09:00,32,R,ugm-3 (VCM),,,,,,,,,
02-01-2008,10:00,30,R,ugm-3 (VCM),,,,,,,,,
02-01-2008,11:00,28,R,ugm-3 (VCM),,,,,,,,,
02-01-2008,12:00,24,R,ugm-3 (VCM),,,,,,,,,
02-01-2008,13:00,24,R,ugm-3 (VCM),,,,,,,,,
02-01-2008,14:00,23,R,ugm-3 (VCM),,,,,,,,,
02-01-2008,15:00,21,R,ugm-3 (VCM),,,,,,,,,
02-01-2008,16:00,20,R,ugm-3 (VCM),,,,,,,,,
02-01-2008,17:00,19,R,ugm-3 (VCM),,,,,,,,,
02-01-2008,18:00,17,R,ugm-3 (VCM),,,,,,,,,
02-01-2008,19:00,13,R,ugm-3 (VCM),,,,,,,,,
02-01-2008,20:00,13,R,ugm-3 (VCM),,,,,,,,,
02-01-2008,21:00,26,R,ugm-3 (VCM),,,,,,,,,
02-01-2008,22:00,11,R,ugm-3 (VCM),,,,,,,,,
02-01-2008,23:00,11,R,ugm-3 (VCM),,,,,,,,,
02-01-2008,24:00,12,R,ugm-3 (VCM),,,,,,,,,
03-01-2008,01:00,8,R,ugm-3 (VCM),,,,,,,,,
03-01-2008,02:00,12,R,ugm-3 (VCM),,,,,,,,,
03-01-2008,03:00,14,R,ugm-3 (VCM),,,,,,,,,
03-01-2008,04:00,9,R,ugm-3 (VCM),,,,,,,,,
03-01-2008,05:00,10,R,ugm-3 (VCM),,,,,,,,,
03-01-2008,06:00,7,R,ugm-3 (VCM),,,,,,,,,
03-01-2008,07:00,7,R,ugm-3 (VCM),,,,,,,,,
03-01-2008,08:00,9,R,ugm-3 (VCM),,,,,,,,,
03-01-2008,09:00,11,R,ugm-3 (VCM),,,,,,,,,
03-01-2008,10:00,12,R,ugm-3 (VCM),,,,,,,,,
03-01-2008,11:00,16,R,ugm-3 (VCM),,,,,,,,,
03-01-2008,12:00,21,R,ugm-3 (VCM),,,,,,,,,
03-01-2008,13:00,20,R,ugm-3 (VCM),,,,,,,,,
03-01-2008,14:00,21,R,ugm-3 (VCM),,,,,,,,,
03-01-2008,15:00,20,R,ugm-3 (VCM),,,,,,,,,
03-01-2008,16:00,22,R,ugm-3 (VCM),,,,,,,,,
03-01-2008,17:00,22,R,ugm-3 (VCM),,,,,,,,,
03-01-2008,18:00,22,R,ugm-3 (VCM),,,,,,,,,
03-01-2008,19:00,22,R,ugm-3 (VCM),,,,,,,,,
03-01-2008,20:00,28,R,ugm-3 (VCM),,,,,,,,,
03-01-2008,21:00,30,R,ugm-3 (VCM),,,,,,,,,
03-01-2008,22:00,35,R,ugm-3 (VCM),,,,,,,,,
03-01-2008,23:00,35,R,ugm-3 (VCM),,,,,,,,,
03-01-2008,24:00,31,R,ugm-3 (VCM),,,,,,,,,
04-01-2008,01:00,28,R,ugm-3 (VCM),,,,,,,,,
04-01-2008,02:00,28,R,ugm-3 (VCM),,,,,,,,,
04-01-2008,03:00,30,R,ugm-3 (VCM),,,,,,,,,
04-01-2008,04:00,29,R,ugm-3 (VCM),,,,,,,,,
04-01-2008,05:00,32,R,ugm-3 (VCM),,,,,,,,,
04-01-2008,06:00,34,R,ugm-3 (VCM),,,,,,,,,
04-01-2008,07:00,35,R,ugm-3 (VCM),,,,,,,,,
04-01-2008,08:00,27,R,ugm-3 (VCM),,,,,,,,,
04-01-2008,09:00,21,R,ugm-3 (VCM),,,,,,,,,
04-01-2008,10:00,21,R,ugm-3 (VCM),,,,,,,,,
04-01-2008,11:00,26,R,ugm-3 (VCM),,,,,,,,,
04-01-2008,12:00,31,R,ugm-3 (VCM),,,,,,,,,
04-01-2008,13:00,26,R,ugm-3 (VCM),,,,,,,,,
04-01-2008,14:00,24,R,ugm-3 (VCM),,,,,,,,,
04-01-2008,15:00,24,R,ugm-3 (VCM),,,,,,,,,
04-01-2008,16:00,27,R,ugm-3 (VCM),,,,,,,,,
04-01-2008,17:00,31,R,ugm-3 (VCM),,,,,,,,,
04-01-2008,18:00,23,R,ugm-3 (VCM),,,,,,,,,
04-01-2008,19:00,21,R,ugm-3 (VCM),,,,,,,,,
04-01-2008,20:00,17,R,ugm-3 (VCM),,,,,,,,,
04-01-2008,21:00,12,R,ugm-3 (VCM),,,,,,,,,
04-01-2008,22:00,12,R,ugm-3 (VCM),,,,,,,,,
04-01-2008,23:00,9,R,ugm-3 (VCM),,,,,,,,,
04-01-2008,24:00,7,R,ugm-3 (VCM),,,,,,,,,
05-01-2008,01:00,8,R,ugm-3 (VCM),,,,,,,,,
05-01-2008,02:00,8,R,ugm-3 (VCM),,,,,,,,,
05-01-2008,03:00,7,R,ugm-3 (VCM),,,,,,,,,
05-01-2008,04:00,9,R,ugm-3 (VCM),,,,,,,,,
05-01-2008,05:00,7,R,ugm-3 (VCM),,,,,,,,,
05-01-2008,06:00,10,R,ugm-3 (VCM),,,,,,,,,
05-01-2008,07:00,10,R,ugm-3 (VCM),,,,,,,,,
05-01-2008,08:00,11,R,ugm-3 (VCM),,,,,,,,,
05-01-2008,09:00,9,R,ugm-3 (VCM),,,,,,,,,
05-01-2008,10:00,10,R,ugm-3 (VCM),,,,,,,,,
05-01-2008,11:00,15,R,ugm-3 (VCM),,,,,,,,,
05-01-2008,12:00,18,R,ugm-3 (VCM),,,,,,,,,
05-01-2008,13:00,18,R,ugm-3 (VCM),,,,,,,,,
05-01-2008,14:00,18,R,ugm-3 (VCM),,,,,,,,,
05-01-2008,15:00,17,R,ugm-3 (VCM),,,,,,,,,
05-01-2008,16:00,13,R,ugm-3 (VCM),,,,,,,,,
05-01-2008,17:00,11,R,ugm-3 (VCM),,,,,,,,,
05-01-2008,18:00,13,R,ugm-3 (VCM),,,,,,,,,
05-01-2008,19:00,15,R,ugm-3 (VCM),,,,,,,,,
05-01-2008,20:00,13,R,ugm-3 (VCM),,,,,,,,,
05-01-2008,21:00,17,R,ugm-3 (VCM),,,,,,,,,
05-01-2008,22:00,15,R,ugm-3 (VCM),,,,,,,,,
05-01-2008,23:00,14,R,ugm-3 (VCM),,,,,,,,,
05-01-2008,24:00,12,R,ugm-3 (VCM),,,,,,,,,
06-01-2008,01:00,,,,,,,,,,,,
06-01-2008,02:00,,,,,,,,,,,,
06-01-2008,03:00,,,,,,,,,,,,
06-01-2008,04:00,,,,,,,,,,,,
06-01-2008,05:00,,,,,,,,,,,,
06-01-2008,06:00,13,R,ugm-3 (VCM),,,,,,,,,
06-01-2008,07:00,14,R,ugm-3 (VCM),,,,,,,,,
06-01-2008,08:00,13,R,ugm-3 (VCM),,,,,,,,,
06-01-2008,09:00,13,R,ugm-3 (VCM),,,,,,,,,
06-01-2008,10:00,16,R,ugm-3 (VCM),,,,,,,,,
06-01-2008,11:00,13,R,ugm-3 (VCM),,,,,,,,,
06-01-2008,12:00,14,R,ugm-3 (VCM),,,,,,,,,
06-01-2008,13:00,15,R,ugm-3 (VCM),,,,,,,,,
06-01-2008,14:00,14,R,ugm-3 (VCM),,,,,,,,,
06-01-2008,15:00,15,R,ugm-3 (VCM),,,,,,,,,
06-01-2008,16:00,15,R,ugm-3 (VCM),,,,,,,,,
06-01-2008,17:00,18,R,ugm-3 (VCM),,,,,,,,,
06-01-2008,18:00,24,R,ugm-3 (VCM),,,,,,,,,
06-01-2008,19:00,18,R,ugm-3 (VCM),,,,,,,,,
06-01-2008,20:00,23,R,ugm-3 (VCM),,,,,,,,,
06-01-2008,21:00,19,R,ugm-3 (VCM),,,,,,,,,
06-01-2008,22:00,18,R,ugm-3 (VCM),,,,,,,,,
06-01-2008,23:00,13,R,ugm-3 (VCM),,,,,,,,,
06-01-2008,24:00,11,R,ugm-3 (VCM),,,,,,,,,
07-01-2008,01:00,9,R,ugm-3 (VCM),,,,,,,,,
07-01-2008,02:00,6,R,ugm-3 (VCM),,,,,,,,,
07-01-2008,03:00,11,R,ugm-3 (VCM),,,,,,,,,
07-01-2008,04:00,14,R,ugm-3 (VCM),,,,,,,,,
07-01-2008,05:00,10,R,ugm-3 (VCM),,,,,,,,,
07-01-2008,06:00,6,R,ugm-3 (VCM),,,,,,,,,
07-01-2008,07:00,4,R,ugm-3 (VCM),,,,,,,,,
07-01-2008,08:00,-3,R,ugm-3 (VCM),,,,,,,,,
07-01-2008,09:00,-2,R,ugm-3 (VCM),,,,,,,,,
07-01-2008,10:00,-1,R,ugm-3 (VCM),,,,,,,,,
07-01-2008,11:00,3,R,ugm-3 (VCM),,,,,,,,,
07-01-2008,12:00,0,R,ugm-3 (VCM),,,,,,,,,
07-01-2008,13:00,5,R,ugm-3 (VCM),,,,,,,,,
07-01-2008,14:00,9,R,ugm-3 (VCM),,,,,,,,,
07-01-2008,15:00,6,R,ugm-3 (VCM),,,,,,,,,
07-01-2008,16:00,1,R,ugm-3 (VCM),,,,,,,,,
07-01-2008,17:00,6,R,ugm-3 (VCM),,,,,,,,,
07-01-2008,18:00,7,R,ugm-3 (VCM),,,,,,,,,
07-01-2008,19:00,8,R,ugm-3 (VCM),,,,,,,,,
07-01-2008,20:00,14,R,ugm-3 (VCM),,,,,,,,,
07-01-2008,21:00,18,R,ugm-3 (VCM),,,,,,,,,
07-01-2008,22:00,18,R,ugm-3 (VCM),,,,,,,,,
07-01-2008,23:00,18,R,ugm-3 (VCM),,,,,,,,,
07-01-2008,24:00,14,R,ugm-3 (VCM),,,,,,,,,
08-01-2008,01:00,12,R,ugm-3 (VCM),,,,,,,,,
08-01-2008,02:00,13,R,ugm-3 (VCM),,,,,,,,,
08-01-2008,03:00,9,R,ugm-3 (VCM),,,,,,,,,
08-01-2008,04:00,9,R,ugm-3 (VCM),,,,,,,,,
08-01-2008,05:00,9,R,ugm-3 (VCM),,,,,,,,,
08-01-2008,06:00,10,R,ugm-3 (VCM),,,,,,,,,
08-01-2008,07:00,10,R,ugm-3 (VCM),,,,,,,,,
08-01-2008,08:00,12,R,ugm-3 (VCM),,,,,,,,,
08-01-2008,09:00,14,R,ugm-3 (VCM),,,,,,,,,
08-01-2008,10:00,17,R,ugm-3 (VCM),,,,,,,,,
08-01-2008,11:00,13,R,ugm-3 (VCM),,,,,,,,,
08-01-2008,12:00,18,R,ugm-3 (VCM),,,,,,,,,
08-01-2008,13:00,15,R,ugm-3 (VCM),,,,,,,,,
08-01-2008,14:00,15,R,ugm-3 (VCM),,,,,,,,,
08-01-2008,15:00,10,R,ugm-3 (VCM),,,,,,,,,
08-01-2008,16:00,9,R,ugm-3 (VCM),,,,,,,,,
08-01-2008,17:00,9,R,ugm-3 (VCM),,,,,,,,,
08-01-2008,18:00,12,R,ugm-3 (VCM),,,,,,,,,
08-01-2008,19:00,15,R,ugm-3 (VCM),,,,,,,,,
08-01-2008,20:00,12,R,ugm-3 (VCM),,,,,,,,,
08-01-2008,21:00,7,R,ugm-3 (VCM),,,,,,,,,
08-01-2008,22:00,,,,,,,,,,,,
08-01-2008,23:00,2,R,ugm-3 (VCM),,,,,,,,,
08-01-2008,24:00,6,R,ugm-3 (VCM),,,,,,,,,
09-01-2008,01:00,10,R,ugm-3 (VCM),,,,,,,,,
09-01-2008,02:00,8,R,ugm-3 (VCM),,,,,,,,,
09-01-2008,03:00,8,R,ugm-3 (VCM),,,,,,,,,
09-01-2008,04:00,6,R,ugm-3 (VCM),,,,,,,,,
09-01-2008,05:00,6,R,ugm-3 (VCM),,,,,,,,,
09-01-2008,06:00,5,R,ugm-3 (VCM),,,,,,,,,
09-01-2008,07:00,3,R,ugm-3 (VCM),,,,,,,,,
09-01-2008,08:00,6,R,ugm-3 (VCM),,,,,,,,,
09-01-2008,09:00,7,R,ugm-3 (VCM),,,,,,,,,
09-01-2008,10:00,10,R,ugm-3 (VCM),,,,,,,,,
09-01-2008,11:00,11,R,ugm-3 (VCM),,,,,,,,,
09-01-2008,12:00,14,R,ugm-3 (VCM),,,,,,,,,
09-01-2008,13:00,12,R,ugm-3 (VCM),,,,,,,,,
09-01-2008,14:00,,,,,,,,,,,,
09-01-2008,15:00,,,,,,,,,,,,
09-01-2008,16:00,,,,,,,,,,,,
09-01-2008,17:00,,,,,,,,,,,,
09-01-2008,18:00,,,,,,,,,,,,
09-01-2008,19:00,,,,,,,,,,,,
09-01-2008,20:00,,,,,,,,,,,,
09-01-2008,21:00,,,,,,,,,,,,
09-01-2008,22:00,,,,,,,,,,,,
09-01-2008,23:00,7,R,ugm-3 (VCM),,,,,,,,,
09-01-2008,24:00,7,R,ugm-3 (VCM),,,,,,,,,
10-01-2008,01:00,4,R,ugm-3 (VCM),,,,,,,,,
10-01-2008,02:00,2,R,ugm-3 (VCM),,,,,,,,,
10-01-2008,03:00,,,,,,,,,,,,
10-01-2008,04:00,-3,R,ugm-3 (VCM),,,,,,,,,
10-01-2008,05:00,2,R,ugm-3 (VCM),,,,,,,,,
10-01-2008,06:00,3,R,ugm-3 (VCM),,,,,,,,,
10-01-2008,07:00,3,R,ugm-3 (VCM),,,,,,,,,
10-01-2008,08:00,8,R,ugm-3 (VCM),,,,,,,,,
10-01-2008,09:00,9,R,ugm-3 (VCM),,,,,,,,,
10-01-2008,10:00,8,R,ugm-3 (VCM),,,,,,,,,
10-01-2008,11:00,11,R,ugm-3 (VCM),,,,,,,,,
10-01-2008,12:00,10,R,ugm-3 (VCM),,,,,,,,,
10-01-2008,13:00,10,R,ugm-3 (VCM),,,,,,,,,
10-01-2008,14:00,4,R,ugm-3 (VCM),,,,,,,,,
10-01-2008,15:00,-1,R,ugm-3 (VCM),,,,,,,,,
10-01-2008,16:00,4,R,ugm-3 (VCM),,,,,,,,,
10-01-2008,17:00,5,R,ugm-3 (VCM),,,,,,,,,
10-01-2008,18:00,8,R,ugm-3 (VCM),,,,,,,,,
10-01-2008,19:00,8,R,ugm-3 (VCM),,,,,,,,,
10-01-2008,20:00,10,R,ugm-3 (VCM),,,,,,,,,
10-01-2008,21:00,12,R,ugm-3 (VCM),,,,,,,,,
10-01-2008,22:00,13,R,ugm-3 (VCM),,,,,,,,,
10-01-2008,23:00,12,R,ugm-3 (VCM),,,,,,,,,
10-01-2008,24:00,11,R,ugm-3 (VCM),,,,,,,,,
11-01-2008,01:00,11,R,ugm-3 (VCM),,,,,,,,,
11-01-2008,02:00,12,R,ugm-3 (VCM),,,,,,,,,
11-01-2008,03:00,11,R,ugm-3 (VCM),,,,,,,,,
11-01-2008,04:00,13,R,ugm-3 (VCM),,,,,,,,,
11-01-2008,05:00,11,R,ugm-3 (VCM),,,,,,,,,
11-01-2008,06:00,15,R,ugm-3 (VCM),,,,,,,,,
11-01-2008,07:00,13,R,ugm-3 (VCM),,,,,,,,,
11-01-2008,08:00,18,R,ugm-3 (VCM),,,,,,,,,
11-01-2008,09:00,22,R,ugm-3 (VCM),,,,,,,,,
11-01-2008,10:00,30,R,ugm-3 (VCM),,,,,,,,,
11-01-2008,11:00,19,R,ugm-3 (VCM),,,,,,,,,
11-01-2008,12:00,28,R,ugm-3 (VCM),,,,,,,,,
11-01-2008,13:00,19,R,ugm-3 (VCM),,,,,,,,,
11-01-2008,14:00,18,R,ugm-3 (VCM),,,,,,,,,
11-01-2008,15:00,16,R,ugm-3 (VCM),,,,,,,,,
11-01-2008,16:00,18,R,ugm-3 (VCM),,,,,,,,,
11-01-2008,17:00,8,R,ugm-3 (VCM),,,,,,,,,
11-01-2008,18:00,15,R,ugm-3 (VCM),,,,,,,,,
11-01-2008,19:00,21,R,ugm-3 (VCM),,,,,,,,,
11-01-2008,20:00,16,R,ugm-3 (VCM),,,,,,,,,
11-01-2008,21:00,14,R,ugm-3 (VCM),,,,,,,,,
11-01-2008,22:00,12,R,ugm-3 (VCM),,,,,,,,,
11-01-2008,23:00,8,R,ugm-3 (VCM),,,,,,,,,
11-01-2008,24:00,6,R,ugm-3 (VCM),,,,,,,,,
12-01-2008,01:00,6,R,ugm-3 (VCM),,,,,,,,,
12-01-2008,02:00,4,R,ugm-3 (VCM),,,,,,,,,
12-01-2008,03:00,3,R,ugm-3 (VCM),,,,,,,,,
12-01-2008,04:00,6,R,ugm-3 (VCM),,,,,,,,,
12-01-2008,05:00,3,R,ugm-3 (VCM),,,,,,,,,
12-01-2008,06:00,4,R,ugm-3 (VCM),,,,,,,,,
12-01-2008,07:00,3,R,ugm-3 (VCM),,,,,,,,,
12-01-2008,08:00,5,R,ugm-3 (VCM),,,,,,,,,
12-01-2008,09:00,5,R,ugm-3 (VCM),,,,,,,,,
12-01-2008,10:00,12,R,ugm-3 (VCM),,,,,,,,,
12-01-2008,11:00,13,R,ugm-3 (VCM),,,,,,,,,
12-01-2008,12:00,17,R,ugm-3 (VCM),,,,,,,,,
12-01-2008,13:00,18,R,ugm-3 (VCM),,,,,,,,,
12-01-2008,14:00,15,R,ugm-3 (VCM),,,,,,,,,
12-01-2008,15:00,16,R,ugm-3 (VCM),,,,,,,,,
12-01-2008,16:00,16,R,ugm-3 (VCM),,,,,,,,,
12-01-2008,17:00,18,R,ugm-3 (VCM),,,,,,,,,
12-01-2008,18:00,16,R,ugm-3 (VCM),,,,,,,,,
12-01-2008,19:00,17,R,ugm-3 (VCM),,,,,,,,,
12-01-2008,20:00,18,R,ugm-3 (VCM),,,,,,,,,
12-01-2008,21:00,19,R,ugm-3 (VCM),,,,,,,,,
12-01-2008,22:00,16,R,ugm-3 (VCM),,,,,,,,,
12-01-2008,23:00,13,R,ugm-3 (VCM),,,,,,,,,
12-01-2008,24:00,12,R,ugm-3 (VCM),,,,,,,,,
13-01-2008,01:00,13,R,ugm-3 (VCM),,,,,,,,,
13-01-2008,02:00,13,R,ugm-3 (VCM),,,,,,,,,
13-01-2008,03:00,10,R,ugm-3 (VCM),,,,,,,,,
13-01-2008,04:00,7,R,ugm-3 (VCM),,,,,,,,,
13-01-2008,05:00,6,R,ugm-3 (VCM),,,,,,,,,
13-01-2008,06:00,6,R,ugm-3 (VCM),,,,,,,,,
13-01-2008,07:00,9,R,ugm-3 (VCM),,,,,,,,,
13-01-2008,08:00,8,R,ugm-3 (VCM),,,,,,,,,
13-01-2008,09:00,6,R,ugm-3 (VCM),,,,,,,,,
13-01-2008,10:00,7,R,ugm-3 (VCM),,,,,,,,,
13-01-2008,11:00,9,R,ugm-3 (VCM),,,,,,,,,
13-01-2008,12:00,8,R,ugm-3 (VCM),,,,,,,,,
13-01-2008,13:00,10,R,ugm-3 (VCM),,,,,,,,,
13-01-2008,14:00,14,R,ugm-3 (VCM),,,,,,,,,
13-01-2008,15:00,10,R,ugm-3 (VCM),,,,,,,,,
13-01-2008,16:00,14,R,ugm-3 (VCM),,,,,,,,,
13-01-2008,17:00,16,R,ugm-3 (VCM),,,,,,,,,
13-01-2008,18:00,15,R,ugm-3 (VCM),,,,,,,,,
13-01-2008,19:00,12,R,ugm-3 (VCM),,,,,,,,,
13-01-2008,20:00,12,R,ugm-3 (VCM),,,,,,,,,
13-01-2008,21:00,15,R,ugm-3 (VCM),,,,,,,,,
13-01-2008,22:00,14,R,ugm-3 (VCM),,,,,,,,,
13-01-2008,23:00,14,R,ugm-3 (VCM),,,,,,,,,
13-01-2008,24:00,11,R,ugm-3 (VCM),,,,,,,,,
14-01-2008,01:00,12,R,ugm-3 (VCM),,,,,,,,,
14-01-2008,02:00,8,R,ugm-3 (VCM),,,,,,,,,
14-01-2008,03:00,5,R,ugm-3 (VCM),,,,,,,,,
14-01-2008,04:00,6,R,ugm-3 (VCM),,,,,,,,,
14-01-2008,05:00,7,R,ugm-3 (VCM),,,,,,,,,
14-01-2008,06:00,8,R,ugm-3 (VCM),,,,,,,,,
14-01-2008,07:00,8,R,ugm-3 (VCM),,,,,,,,,
14-01-2008,08:00,7,R,ugm-3 (VCM),,,,,,,,,
14-01-2008,09:00,9,R,ugm-3 (VCM),,,,,,,,,
14-01-2008,10:00,7,R,ugm-3 (VCM),,,,,,,,,
14-01-2008,11:00,7,R,ugm-3 (VCM),,,,,,,,,
14-01-2008,12:00,9,R,ugm-3 (VCM),,,,,,,,,
14-01-2008,13:00,8,R,ugm-3 (VCM),,,,,,,,,
14-01-2008,14:00,11,R,ugm-3 (VCM),,,,,,,,,
14-01-2008,15:00,8,R,ugm-3 (VCM),,,,,,,,,
14-01-2008,16:00,6,R,ugm-3 (VCM),,,,,,,,,
14-01-2008,17:00,4,R,ugm-3 (VCM),,,,,,,,,
14-01-2008,18:00,7,R,ugm-3 (VCM),,,,,,,,,
14-01-2008,19:00,6,R,ugm-3 (VCM),,,,,,,,,
14-01-2008,20:00,5,R,ugm-3 (VCM),,,,,,,,,
14-01-2008,21:00,9,R,ugm-3 (VCM),,,,,,,,,
14-01-2008,22:00,8,R,ugm-3 (VCM),,,,,,,,,
14-01-2008,23:00,9,R,ugm-3 (VCM),,,,,,,,,
14-01-2008,24:00,11,R,ugm-3 (VCM),,,,,,,,,
15-01-2008,01:00,13,R,ugm-3 (VCM),,,,,,,,,
15-01-2008,02:00,17,R,ugm-3 (VCM),,,,,,,,,
15-01-2008,03:00,16,R,ugm-3 (VCM),,,,,,,,,
15-01-2008,04:00,12,R,ugm-3 (VCM),,,,,,,,,
15-01-2008,05:00,9,R,ugm-3 (VCM),,,,,,,,,
15-01-2008,06:00,8,R,ugm-3 (VCM),,,,,,,,,
15-01-2008,07:00,11,R,ugm-3 (VCM),,,,,,,,,
15-01-2008,08:00,9,R,ugm-3 (VCM),,,,,,,,,
15-01-2008,09:00,10,R,ugm-3 (VCM),,,,,,,,,
15-01-2008,10:00,11,R,ugm-3 (VCM),,,,,,,,,
15-01-2008,11:00,7,R,ugm-3 (VCM),,,,,,,,,
15-01-2008,12:00,8,R,ugm-3 (VCM),,,,,,,,,
15-01-2008,13:00,5,R,ugm-3 (VCM),,,,,,,,,
15-01-2008,14:00,9,R,ugm-3 (VCM),,,,,,,,,
15-01-2008,15:00,13,R,ugm-3 (VCM),,,,,,,,,
15-01-2008,16:00,28,R,ugm-3 (VCM),,,,,,,,,
15-01-2008,17:00,12,R,ugm-3 (VCM),,,,,,,,,
15-01-2008,18:00,10,R,ugm-3 (VCM),,,,,,,,,
15-01-2008,19:00,13,R,ugm-3 (VCM),,,,,,,,,
15-01-2008,20:00,19,R,ugm-3 (VCM),,,,,,,,,
15-01-2008,21:00,16,R,ugm-3 (VCM),,,,,,,,,
15-01-2008,22:00,16,R,ugm-3 (VCM),,,,,,,,,
15-01-2008,23:00,14,R,ugm-3 (VCM),,,,,,,,,
15-01-2008,24:00,12,R,ugm-3 (VCM),,,,,,,,,
16-01-2008,01:00,10,R,ugm-3 (VCM),,,,,,,,,
16-01-2008,02:00,7,R,ugm-3 (VCM),,,,,,,,,
16-01-2008,03:00,-1,R,ugm-3 (VCM),,,,,,,,,
16-01-2008,04:00,1,R,ugm-3 (VCM),,,,,,,,,
16-01-2008,05:00,0,R,ugm-3 (VCM),,,,,,,,,
16-01-2008,06:00,1,R,ugm-3 (VCM),,,,,,,,,
16-01-2008,07:00,2,R,ugm-3 (VCM),,,,,,,,,
16-01-2008,08:00,1,R,ugm-3 (VCM),,,,,,,,,
16-01-2008,09:00,4,R,ugm-3 (VCM),,,,,,,,,
16-01-2008,10:00,18,R,ugm-3 (VCM),,,,,,,,,
16-01-2008,11:00,11,R,ugm-3 (VCM),,,,,,,,,
16-01-2008,12:00,10,R,ugm-3 (VCM),,,,,,,,,
16-01-2008,13:00,11,R,ugm-3 (VCM),,,,,,,,,
16-01-2008,14:00,8,R,ugm-3 (VCM),,,,,,,,,
16-01-2008,15:00,9,R,ugm-3 (VCM),,,,,,,,,
16-01-2008,16:00,13,R,ugm-3 (VCM),,,,,,,,,
16-01-2008,17:00,15,R,ugm-3 (VCM),,,,,,,,,
16-01-2008,18:00,17,R,ugm-3 (VCM),,,,,,,,,
16-01-2008,19:00,25,R,ugm-3 (VCM),,,,,,,,,
16-01-2008,20:00,21,R,ugm-3 (VCM),,,,,,,,,
16-01-2008,21:00,25,R,ugm-3 (VCM),,,,,,,,,
16-01-2008,22:00,21,R,ugm-3 (VCM),,,,,,,,,
16-01-2008,23:00,21,R,ugm-3 (VCM),,,,,,,,,
16-01-2008,24:00,22,R,ugm-3 (VCM),,,,,,,,,
17-01-2008,01:00,23,R,ugm-3 (VCM),,,,,,,,,
17-01-2008,02:00,26,R,ugm-3 (VCM),,,,,,,,,
17-01-2008,03:00,27,R,ugm-3 (VCM),,,,,,,,,
17-01-2008,04:00,24,R,ugm-3 (VCM),,,,,,,,,
17-01-2008,05:00,21,R,ugm-3 (VCM),,,,,,,,,
17-01-2008,06:00,20,R,ugm-3 (VCM),,,,,,,,,
17-01-2008,07:00,18,R,ugm-3 (VCM),,,,,,,,,
17-01-2008,08:00,19,R,ugm-3 (VCM),,,,,,,,,
17-01-2008,09:00,20,R,ugm-3 (VCM),,,,,,,,,
17-01-2008,10:00,14,R,ugm-3 (VCM),,,,,,,,,
17-01-2008,11:00,15,R,ugm-3 (VCM),,,,,,,,,
17-01-2008,12:00,7,R,ugm-3 (VCM),,,,,,,,,
17-01-2008,13:00,8,R,ugm-3 (VCM),,,,,,,,,
17-01-2008,14:00,8,R,ugm-3 (VCM),,,,,,,,,
17-01-2008,15:00,1,R,ugm-3 (VCM),,,,,,,,,
17-01-2008,16:00,6,R,ugm-3 (VCM),,,,,,,,,
17-01-2008,17:00,4,R,ugm-3 (VCM),,,,,,,,,
17-01-2008,18:00,7,R,ugm-3 (VCM),,,,,,,,,
17-01-2008,19:00,9,R,ugm-3 (VCM),,,,,,,,,
17-01-2008,20:00,9,R,ugm-3 (VCM),,,,,,,,,
17-01-2008,21:00,7,R,ugm-3 (VCM),,,,,,,,,
17-01-2008,22:00,10,R,ugm-3 (VCM),,,,,,,,,
17-01-2008,23:00,6,R,ugm-3 (VCM),,,,,,,,,
17-01-2008,24:00,3,R,ugm-3 (VCM),,,,,,,,,
18-01-2008,01:00,8,R,ugm-3 (VCM),,,,,,,,,
18-01-2008,02:00,8,R,ugm-3 (VCM),,,,,,,,,
18-01-2008,03:00,8,R,ugm-3 (VCM),,,,,,,,,
18-01-2008,04:00,14,R,ugm-3 (VCM),,,,,,,,,
18-01-2008,05:00,14,R,ugm-3 (VCM),,,,,,,,,
18-01-2008,06:00,12,R,ugm-3 (VCM),,,,,,,,,
18-01-2008,07:00,14,R,ugm-3 (VCM),,,,,,,,,
18-01-2008,08:00,19,R,ugm-3 (VCM),,,,,,,,,
18-01-2008,09:00,18,R,ugm-3 (VCM),,,,,,,,,
18-01-2008,10:00,16,R,ugm-3 (VCM),,,,,,,,,
18-01-2008,11:00,14,R,ugm-3 (VCM),,,,,,,,,
18-01-2008,12:00,12,R,ugm-3 (VCM),,,,,,,,,
18-01-2008,13:00,13,R,ugm-3 (VCM),,,,,,,,,
18-01-2008,14:00,17,R,ugm-3 (VCM),,,,,,,,,
18-01-2008,15:00,7,R,ugm-3 (VCM),,,,,,,,,
18-01-2008,16:00,4,R,ugm-3 (VCM),,,,,,,,,
18-01-2008,17:00,6,R,ugm-3 (VCM),,,,,,,,,
18-01-2008,18:00,6,R,ugm-3 (VCM),,,,,,,,,
18-01-2008,19:00,7,R,ugm-3 (VCM),,,,,,,,,
18-01-2008,20:00,7,R,ugm-3 (VCM),,,,,,,,,
18-01-2008,21:00,3,R,ugm-3 (VCM),,,,,,,,,
18-01-2008,22:00,5,R,ugm-3 (VCM),,,,,,,,,
18-01-2008,23:00,10,R,ugm-3 (VCM),,,,,,,,,
18-01-2008,24:00,12,R,ugm-3 (VCM),,,,,,,,,
19-01-2008,01:00,16,R,ugm-3 (VCM),,,,,,,,,
19-01-2008,02:00,11,R,ugm-3 (VCM),,,,,,,,,
19-01-2008,03:00,-2,R,ugm-3 (VCM),,,,,,,,,
19-01-2008,04:00,8,R,ugm-3 (VCM),,,,,,,,,
19-01-2008,05:00,8,R,ugm-3 (VCM),,,,,,,,,
19-01-2008,06:00,8,R,ugm-3 (VCM),,,,,,,,,
19-01-2008,07:00,6,R,ugm-3 (VCM),,,,,,,,,
19-01-2008,08:00,5,R,ugm-3 (VCM),,,,,,,,,
19-01-2008,09:00,4,R,ugm-3 (VCM),,,,,,,,,
19-01-2008,10:00,6,R,ugm-3 (VCM),,,,,,,,,
19-01-2008,11:00,7,R,ugm-3 (VCM),,,,,,,,,
19-01-2008,12:00,11,R,ugm-3 (VCM),,,,,,,,,
19-01-2008,13:00,11,R,ugm-3 (VCM),,,,,,,,,
19-01-2008,14:00,9,R,ugm-3 (VCM),,,,,,,,,
19-01-2008,15:00,9,R,ugm-3 (VCM),,,,,,,,,
19-01-2008,16:00,11,R,ugm-3 (VCM),,,,,,,,,
19-01-2008,17:00,11,R,ugm-3 (VCM),,,,,,,,,
19-01-2008,18:00,16,R,ugm-3 (VCM),,,,,,,,,
19-01-2008,19:00,22,R,ugm-3 (VCM),,,,,,,,,
19-01-2008,20:00,19,R,ugm-3 (VCM),,,,,,,,,
19-01-2008,21:00,18,R,ugm-3 (VCM),,,,,,,,,
19-01-2008,22:00,16,R,ugm-3 (VCM),,,,,,,,,
19-01-2008,23:00,18,R,ugm-3 (VCM),,,,,,,,,
19-01-2008,24:00,12,R,ugm-3 (VCM),,,,,,,,,
20-01-2008,01:00,18,R,ugm-3 (VCM),,,,,,,,,
20-01-2008,02:00,11,R,ugm-3 (VCM),,,,,,,,,
20-01-2008,03:00,9,R,ugm-3 (VCM),,,,,,,,,
20-01-2008,04:00,5,R,ugm-3 (VCM),,,,,,,,,
20-01-2008,05:00,6,R,ugm-3 (VCM),,,,,,,,,
20-01-2008,06:00,8,R,ugm-3 (VCM),,,,,,,,,
20-01-2008,07:00,8,R,ugm-3 (VCM),,,,,,,,,
20-01-2008,08:00,5,R,ugm-3 (VCM),,,,,,,,,
20-01-2008,09:00,2,R,ugm-3 (VCM),,,,,,,,,
20-01-2008,10:00,0,R,ugm-3 (VCM),,,,,,,,,
20-01-2008,11:00,3,R,ugm-3 (VCM),,,,,,,,,
20-01-2008,12:00,7,R,ugm-3 (VCM),,,,,,,,,
20-01-2008,13:00,5,R,ugm-3 (VCM),,,,,,,,,
20-01-2008,14:00,3,R,ugm-3 (VCM),,,,,,,,,
20-01-2008,15:00,5,R,ugm-3 (VCM),,,,,,,,,
20-01-2008,16:00,4,R,ugm-3 (VCM),,,,,,,,,
20-01-2008,17:00,4,R,ugm-3 (VCM),,,,,,,,,
20-01-2008,18:00,4,R,ugm-3 (VCM),,,,,,,,,
20-01-2008,19:00,7,R,ugm-3 (VCM),,,,,,,,,
20-01-2008,20:00,4,R,ugm-3 (VCM),,,,,,,,,
20-01-2008,21:00,11,R,ugm-3 (VCM),,,,,,,,,
20-01-2008,22:00,3,R,ugm-3 (VCM),,,,,,,,,
20-01-2008,23:00,3,R,ugm-3 (VCM),,,,,,,,,
20-01-2008,24:00,4,R,ugm-3 (VCM),,,,,,,,,
21-01-2008,01:00,5,R,ugm-3 (VCM),,,,,,,,,
21-01-2008,02:00,6,R,ugm-3 (VCM),,,,,,,,,
21-01-2008,03:00,5,R,ugm-3 (VCM),,,,,,,,,
21-01-2008,04:00,8,R,ugm-3 (VCM),,,,,,,,,
21-01-2008,05:00,7,R,ugm-3 (VCM),,,,,,,,,
21-01-2008,06:00,6,R,ugm-3 (VCM),,,,,,,,,
21-01-2008,07:00,4,R,ugm-3 (VCM),,,,,,,,,
21-01-2008,08:00,6,R,ugm-3 (VCM),,,,,,,,,
21-01-2008,09:00,5,R,ugm-3 (VCM),,,,,,,,,
21-01-2008,10:00,7,R,ugm-3 (VCM),,,,,,,,,
21-01-2008,11:00,6,R,ugm-3 (VCM),,,,,,,,,
21-01-2008,12:00,12,R,ugm-3 (VCM),,,,,,,,,
21-01-2008,13:00,16,R,ugm-3 (VCM),,,,,,,,,
21-01-2008,14:00,9,R,ugm-3 (VCM),,,,,,,,,
21-01-2008,15:00,8,R,ugm-3 (VCM),,,,,,,,,
21-01-2008,16:00,12,R,ugm-3 (VCM),,,,,,,,,
21-01-2008,17:00,11,R,ugm-3 (VCM),,,,,,,,,
21-01-2008,18:00,0,R,ugm-3 (VCM),,,,,,,,,
21-01-2008,19:00,3,R,ugm-3 (VCM),,,,,,,,,
21-01-2008,20:00,0,R,ugm-3 (VCM),,,,,,,,,
21-01-2008,21:00,0,R,ugm-3 (VCM),,,,,,,,,
21-01-2008,22:00,-3,R,ugm-3 (VCM),,,,,,,,,
21-01-2008,23:00,5,R,ugm-3 (VCM),,,,,,,,,
21-01-2008,24:00,7,R,ugm-3 (VCM),,,,,,,,,
22-01-2008,01:00,5,R,ugm-3 (VCM),,,,,,,,,
22-01-2008,02:00,7,R,ugm-3 (VCM),,,,,,,,,
22-01-2008,03:00,6,R,ugm-3 (VCM),,,,,,,,,
22-01-2008,04:00,6,R,ugm-3 (VCM),,,,,,,,,
22-01-2008,05:00,8,R,ugm-3 (VCM),,,,,,,,,
22-01-2008,06:00,6,R,ugm-3 (VCM),,,,,,,,,
22-01-2008,07:00,7,R,ugm-3 (VCM),,,,,,,,,
22-01-2008,08:00,8,R,ugm-3 (VCM),,,,,,,,,
22-01-2008,09:00,11,R,ugm-3 (VCM),,,,,,,,,
22-01-2008,10:00,16,R,ugm-3 (VCM),,,,,,,,,
22-01-2008,11:00,16,R,ugm-3 (VCM),,,,,,,,,
22-01-2008,12:00,23,R,ugm-3 (VCM),,,,,,,,,
22-01-2008,13:00,24,R,ugm-3 (VCM),,,,,,,,,
22-01-2008,14:00,24,R,ugm-3 (VCM),,,,,,,,,
22-01-2008,15:00,24,R,ugm-3 (VCM),,,,,,,,,
22-01-2008,16:00,19,R,ugm-3 (VCM),,,,,,,,,
22-01-2008,17:00,19,R,ugm-3 (VCM),,,,,,,,,
22-01-2008,18:00,20,R,ugm-3 (VCM),,,,,,,,,
22-01-2008,19:00,19,R,ugm-3 (VCM),,,,,,,,,
22-01-2008,20:00,17,R,ugm-3 (VCM),,,,,,,,,
22-01-2008,21:00,17,R,ugm-3 (VCM),,,,,,,,,
22-01-2008,22:00,18,R,ugm-3 (VCM),,,,,,,,,
22-01-2008,23:00,19,R,ugm-3 (VCM),,,,,,,,,
22-01-2008,24:00,19,R,ugm-3 (VCM),,,,,,,,,
23-01-2008,01:00,20,R,ugm-3 (VCM),,,,,,,,,
23-01-2008,02:00,18,R,ugm-3 (VCM),,,,,,,,,
23-01-2008,03:00,19,R,ugm-3 (VCM),,,,,,,,,
23-01-2008,04:00,18,R,ugm-3 (VCM),,,,,,,,,
23-01-2008,05:00,16,R,ugm-3 (VCM),,,,,,,,,
23-01-2008,06:00,14,R,ugm-3 (VCM),,,,,,,,,
23-01-2008,07:00,9,R,ugm-3 (VCM),,,,,,,,,
23-01-2008,08:00,11,R,ugm-3 (VCM),,,,,,,,,
23-01-2008,09:00,13,R,ugm-3 (VCM),,,,,,,,,
23-01-2008,10:00,29,R,ugm-3 (VCM),,,,,,,,,
23-01-2008,11:00,26,R,ugm-3 (VCM),,,,,,,,,
23-01-2008,12:00,,,,,,,,,,,,
23-01-2008,13:00,22,R,ugm-3 (VCM),,,,,,,,,
23-01-2008,14:00,33,R,ugm-3 (VCM),,,,,,,,,
23-01-2008,15:00,28,R,ugm-3 (VCM),,,,,,,,,
23-01-2008,16:00,24,R,ugm-3 (VCM),,,,,,,,,
23-01-2008,17:00,12,R,ugm-3 (VCM),,,,,,,,,
23-01-2008,18:00,12,R,ugm-3 (VCM),,,,,,,,,
23-01-2008,19:00,16,R,ugm-3 (VCM),,,,,,,,,
23-01-2008,20:00,18,R,ugm-3 (VCM),,,,,,,,,
23-01-2008,21:00,24,R,ugm-3 (VCM),,,,,,,,,
23-01-2008,22:00,33,R,ugm-3 (VCM),,,,,,,,,
23-01-2008,23:00,26,R,ugm-3 (VCM),,,,,,,,,
23-01-2008,24:00,9,R,ugm-3 (VCM),,,,,,,,,
24-01-2008,01:00,5,R,ugm-3 (VCM),,,,,,,,,
24-01-2008,02:00,9,R,ugm-3 (VCM),,,,,,,,,
24-01-2008,03:00,20,R,ugm-3 (VCM),,,,,,,,,
24-01-2008,04:00,27,R,ugm-3 (VCM),,,,,,,,,
24-01-2008,05:00,12,R,ugm-3 (VCM),,,,,,,,,